Change the Weather History Date:

Thursday, April 17, 2014

  Actual Average Record
Temperature  
Mean Temperature 54 °F -  
Max Temperature 66 °F 72 °F 91 °F (2006)
Min Temperature 41 °F 46 °F 28 °F (1949)
Degree Days  
Heating Degree Days 12    
Growing Degree Days 4 (Base 50)    
Moisture  
Dew Point 30 °F    
Average Humidity 44    
Maximum Humidity 67    
Minimum Humidity 24    
Precipitation  
Precipitation 0.00 in - - ()
Sea Level Pressure  
Sea Level Pressure 30.42 in    
Wind  
Wind Speed 6 mph (ENE)    
Max Wind Speed 15 mph    
Max Gust Speed 22 mph    
Visibility 10 miles    
Events      
Averages and records for this station are not official NWS values.
T = Trace of Precipitation, MM = Missing Value Source: NWS Daily Summary

Daily Weather History Graph

Daily Weather History Graph

Search for Another Location

Airport or City:

Trip Planner

Search our weather history database for the weather conditions in past years. The results will help you decide how hot, cold, wet, or windy it might be!

Date:

Astronomy

Apr. 17, 2014 Rise Set
Actual Time 6:57 AM EDT 8:05 PM EDT
Civil Twilight 6:31 AM EDT 8:31 PM EDT
Nautical Twilight 6:00 AM EDT 9:02 PM EDT
Astronomical Twilight 5:28 AM EDT 9:34 PM EDT
Moon 10:44 PM EDT (4/17) 8:32 AM EDT (4/17)
Length of Visible Light 14h 00m
Length of Day
13h 07m
Waning Gibbous, 94% of the Moon is Illuminated
Apr 17
Waning Gibbous
Apr 22
Last Quarter
Apr 29
New
May 6
First Quarter
May 14
Full

Hourly Weather History & Observations

Time (EDT) Temp. Windchill Dew Point Humidity Pressure Visibility Wind Dir Wind Speed Gust Speed Precip Events Conditions
12:54 AM 44.1 °F 42.5 °F 30.9 °F 60% 30.40 in 10.0 mi NNE 3.5 mph - N/A   Clear
1:54 AM 44.1 °F - 30.9 °F 60% 30.41 in 10.0 mi Calm Calm - N/A   Clear
2:54 AM 42.1 °F 38.4 °F 32.0 °F 67% 30.42 in 10.0 mi NE 5.8 mph - N/A   Clear
3:54 AM 42.1 °F 38.4 °F 32.0 °F 67% 30.42 in 10.0 mi ENE 5.8 mph - N/A   Clear
4:54 AM 42.1 °F 37.1 °F 30.9 °F 65% 30.43 in 10.0 mi NE 8.1 mph - N/A   Clear
5:54 AM 42.1 °F 37.1 °F 30.9 °F 65% 30.44 in 10.0 mi NE 8.1 mph - N/A   Clear
6:54 AM 41.0 °F 35.8 °F 28.9 °F 62% 30.45 in 10.0 mi NE 8.1 mph - N/A   Clear
7:54 AM 43.0 °F 37.2 °F 28.9 °F 58% 30.48 in 10.0 mi ENE 10.4 mph - N/A   Clear
8:54 AM 46.0 °F 41.4 °F 28.0 °F 50% 30.50 in 10.0 mi ENE 9.2 mph 20.7 mph N/A   Clear
9:54 AM 48.9 °F - 26.1 °F 41% 30.50 in 10.0 mi East 10.4 mph 19.6 mph N/A   Clear
10:54 AM 52.0 °F - 27.0 °F 38% 30.51 in 10.0 mi ENE 11.5 mph 21.9 mph N/A   Clear
12:54 PM 57.0 °F - 26.1 °F 30% 30.49 in 10.0 mi ENE 15.0 mph 20.7 mph N/A   Clear
1:54 PM 60.1 °F - 26.1 °F 27% 30.47 in 10.0 mi NE 5.8 mph - N/A   Clear
2:54 PM 63.0 °F - 27.0 °F 26% 30.43 in 10.0 mi ENE 8.1 mph - N/A   Clear
3:54 PM 64.0 °F - 26.1 °F 24% 30.39 in 10.0 mi ESE 8.1 mph - N/A   Clear
4:54 PM 64.9 °F - 27.0 °F 24% 30.35 in 10.0 mi ENE 11.5 mph - N/A   Clear
5:54 PM 66.0 °F - 28.0 °F 24% 30.37 in 10.0 mi ENE 6.9 mph - N/A   Clear
6:54 PM 64.0 °F - 28.9 °F 27% 30.35 in 10.0 mi ENE 6.9 mph - N/A   Clear
7:54 PM 62.1 °F - 30.0 °F 30% 30.37 in 10.0 mi East 4.6 mph - N/A   Clear
8:54 PM 60.1 °F - 30.9 °F 33% 30.39 in 10.0 mi East 4.6 mph - N/A   Scattered Clouds
9:54 PM 55.9 °F - 34.0 °F 44% 30.40 in 10.0 mi NE 5.8 mph - N/A   Scattered Clouds
10:54 PM 55.0 °F - 36.0 °F 49% 30.40 in 10.0 mi ENE 4.6 mph - N/A   Mostly Cloudy
11:54 PM 54.0 °F - 32.0 °F 43% 30.38 in 10.0 mi NE 8.1 mph - N/A   Mostly Cloudy